Вернуться в каталог

STARLINK-32180

АктивенСвязьVLEO
NORAD 60374·PAYLOAD·🇺🇸 United States

Запущен Aug 4, 2024 с Vandenberg Space Force Base

Loading…

Ближайшие Пролёты (ближайшие 24 часа)

TLE

СвежийSource: CelesTrak SupGP

Эпоха: Sep 14, 2026, 14:55 UTC

1 60374C 24138V   26257.62201389  .00062169  00000+0  19994-2 0  2575
2 60374  53.1581 150.7503 0001350  87.9403 214.5869 15.31667053    19

Отслеживайте STARLINK-32180 в реальном времени с AllMySat

Download on the App Store